Starlink 1789

operational
NORAD ID: 46690 Int'l Des: 2020-073 Owner: SPXS Country: US Constellation: starlink
LEOCIRCULAR

About Starlink 1789

Description loading...

Live Position

Loading 3D Globe...

Upcoming Passes

Altitude History

Altitude vs Time

uPlot chart will show altitude changes over time

Two-Line Element Set

1 46690U 20073W 25343.25002315 .00218421 00000-0 29352-2 0 9993
2 46690 53.0496 255.7798 0011647 54.0310 262.5190 15.56589864 5691
Epoch: Dec 9, 2025 • Age: 7 hours

Current Status

Altitude 415.4 km
Velocity 7.66 km/s
Sub-Earth Point -33.51°S, 174.14°W
Launch Date Oct 18, 2020
Age 5.1 years
Type internet

Technical Details

Classification Payload
Mass 260.00 kg
Dry Mass 248.00 kg
Total Mass 260.00 kg
Length 0.20 m
Diameter 2.80 m
Span 9.00 m
Shape Box + pan
Manufacturer SPXS
Bus Type Starlink
Phase Status In Orbit
Owner/State SPXS/US

Large Constellations

Loading constellations...